Weather History for Newton, KS

Change the Weather History Date:

Monday, January 21, 2013

  Actual Average Record
Temperature  
Mean Temperature 24 °F -  
Max Temperature 35 °F 39 °F 57 °F (1997)
Min Temperature 12 °F 21 °F 6 °F (2014)
Degree Days  
Heating Degree Days 42    
Moisture  
Dew Point 9 °F    
Average Humidity 57    
Maximum Humidity 79    
Minimum Humidity 38    
Precipitation  
Precipitation 0.00 in - - ()
Sea Level Pressure  
Sea Level Pressure 30.35 in    
Wind  
Wind Speed 6 mph (North)    
Max Wind Speed 12 mph    
Max Gust Speed -    
Visibility 10 miles    
Events      
Averages and records for this station are not official NWS values.
T = Trace of Precipitation, MM = Missing Value Source: NWS Daily Summary

Daily Weather History Graph

Daily Weather History Graph

Search for Another Location

Airport:

Trip Planner

Search our weather history database for the weather conditions in past years. The results will help you decide how hot, cold, wet, or windy it might be!

Date:

Astronomy

Jan. 21, 2013 Rise Set
Actual Time 7:41 AM CST 5:40 PM CST
Civil Twilight 7:12 AM CST 6:08 PM CST
Nautical Twilight 6:40 AM CST 6:40 PM CST
Astronomical Twilight 6:09 AM CST 7:12 PM CST
Moon 1:21 PM CST (1/21) 3:10 AM CST (1/21)
Length of Visible Light 10h 55m
Length of Day
9h 58m
Waxing Gibbous, 75% of the Moon is Illuminated
Jan 21
Waxing Gibbous
Jan 26
Full
Feb 3
Last Quarter
Feb 10
New
Feb 17
First Quarter

Hourly Weather History & Observations

Time (CST) Temp. Windchill Dew Point Humidity Pressure Visibility Wind Dir Wind Speed Gust Speed Precip Events Conditions
12:15 AM 19.4 °F 11.5 °F 6.8 °F 58% 30.39 in 10.0 mi NNE 5.8 mph - N/A   Clear
12:35 AM 19.4 °F 11.5 °F 6.8 °F 58% 30.40 in 10.0 mi North 5.8 mph - N/A   Clear
12:55 AM 17.6 °F 7.3 °F 8.6 °F 68% 30.40 in 10.0 mi North 8.1 mph - N/A   Clear
1:15 AM 17.6 °F 7.3 °F 6.8 °F 63% 30.41 in 10.0 mi North 8.1 mph - N/A   Clear
1:35 AM 15.8 °F 6.1 °F 6.8 °F 68% 30.40 in 10.0 mi North 6.9 mph - N/A   Clear
1:55 AM 15.8 °F 5.1 °F 6.8 °F 68% 30.40 in 10.0 mi North 8.1 mph - N/A   Clear
2:15 AM 15.8 °F 6.1 °F 6.8 °F 68% 30.40 in 10.0 mi North 6.9 mph - N/A   Clear
2:35 AM 15.8 °F 5.1 °F 8.6 °F 73% 30.40 in 10.0 mi NNE 8.1 mph - N/A   Clear
2:55 AM 17.6 °F 7.3 °F 8.6 °F 68% 30.40 in 10.0 mi NNE 8.1 mph - N/A   Clear
3:15 AM 17.6 °F 7.3 °F 6.8 °F 63% 30.39 in 10.0 mi NNE 8.1 mph - N/A   Clear
3:35 AM 15.8 °F 6.1 °F 6.8 °F 68% 30.40 in 10.0 mi North 6.9 mph - N/A   Clear
3:55 AM 15.8 °F 8.6 °F 6.8 °F 68% 30.40 in 10.0 mi North 4.6 mph - N/A   Clear
4:15 AM 14.0 °F - 6.8 °F 73% 30.40 in 10.0 mi Calm Calm - N/A   Clear
4:55 AM 15.8 °F 10.2 °F 6.8 °F 68% 30.38 in 10.0 mi North 3.5 mph - N/A   Clear
5:15 AM 15.8 °F 8.6 °F 6.8 °F 68% 30.39 in 10.0 mi West 4.6 mph - N/A   Clear
5:35 AM 15.8 °F 10.2 °F 6.8 °F 68% 30.38 in 10.0 mi West 3.5 mph - N/A   Clear
5:55 AM 14.0 °F 6.5 °F 6.8 °F 73% 30.39 in 10.0 mi West 4.6 mph - N/A   Clear
6:15 AM 15.8 °F 8.6 °F 6.8 °F 68% 30.38 in 10.0 mi West 4.6 mph - N/A   Clear
6:35 AM 15.8 °F 10.2 °F 6.8 °F 68% 30.39 in 10.0 mi West 3.5 mph - N/A   Clear
6:55 AM 15.8 °F 7.2 °F 6.8 °F 68% 30.39 in 10.0 mi WNW 5.8 mph - N/A   Clear
7:15 AM 15.8 °F 8.6 °F 6.8 °F 68% 30.40 in 10.0 mi NW 4.6 mph - N/A   Clear
7:35 AM 14.0 °F 6.5 °F 6.8 °F 73% 30.40 in 10.0 mi NNW 4.6 mph - N/A   Clear
7:55 AM 12.2 °F 2.9 °F 6.8 °F 79% 30.38 in 10.0 mi North 5.8 mph - N/A   Clear
8:15 AM 14.0 °F 5.1 °F 6.8 °F 73% 30.39 in 10.0 mi North 5.8 mph - N/A   Clear
8:35 AM 17.6 °F 12.3 °F 10.4 °F 73% 30.39 in 10.0 mi NNW 3.5 mph - N/A   Clear
8:55 AM 19.4 °F 12.8 °F 10.4 °F 68% 30.40 in 10.0 mi NW 4.6 mph - N/A   Clear
9:15 AM 21.2 °F 14.9 °F 10.4 °F 63% 30.40 in 10.0 mi NW 4.6 mph - N/A   Clear
9:35 AM 23.0 °F 17.0 °F 12.2 °F 63% 30.41 in 10.0 mi WNW 4.6 mph - N/A   Clear
9:55 AM 24.8 °F 20.5 °F 12.2 °F 59% 30.41 in 10.0 mi NW 3.5 mph - N/A   Clear
10:15 AM 26.6 °F - 10.4 °F 51% 30.41 in 10.0 mi Calm Calm - N/A   Clear
10:35 AM 26.6 °F 22.6 °F 10.4 °F 51% 30.42 in 10.0 mi NNE 3.5 mph - N/A   Clear
10:55 AM 28.4 °F 24.6 °F 10.4 °F 47% 30.42 in 10.0 mi NE 3.5 mph - N/A   Clear
11:15 AM 28.4 °F - 10.4 °F 47% 30.41 in 10.0 mi Calm Calm - N/A   Clear
11:35 AM 28.4 °F 22.2 °F 10.4 °F 47% 30.41 in 10.0 mi NNE 5.8 mph - N/A   Clear
11:55 AM 30.2 °F 26.7 °F 10.4 °F 44% 30.40 in 10.0 mi NW 3.5 mph - N/A   Clear
12:15 PM 30.2 °F 26.7 °F 10.4 °F 44% 30.39 in 10.0 mi WSW 3.5 mph - N/A   Clear
12:35 PM 30.2 °F - 10.4 °F 44% 30.37 in 10.0 mi Calm Calm - N/A   Clear
12:55 PM 30.2 °F 26.7 °F 10.4 °F 44% 30.36 in 10.0 mi SW 3.5 mph - N/A   Clear
1:15 PM 32.0 °F - 12.2 °F 44% 30.36 in 10.0 mi Calm Calm - N/A   Clear
1:35 PM 33.8 °F 30.8 °F 10.4 °F 38% 30.35 in 10.0 mi NNW 3.5 mph - N/A   Clear
1:55 PM 33.8 °F 30.8 °F 12.2 °F 41% 30.34 in 10.0 mi SW 3.5 mph - N/A   Clear
2:15 PM 33.8 °F 30.8 °F 12.2 °F 41% 30.33 in 10.0 mi SSW 3.5 mph - N/A   Clear
2:35 PM 33.8 °F 26.4 °F 12.2 °F 41% 30.32 in 10.0 mi SW 9.2 mph - N/A   Clear
2:55 PM 33.8 °F 27.0 °F 12.2 °F 41% 30.31 in 10.0 mi SW 8.1 mph - N/A   Clear
3:15 PM 33.8 °F 26.4 °F 10.4 °F 38% 30.30 in 10.0 mi SSW 9.2 mph - N/A   Clear
3:35 PM 35.6 °F 32.8 °F 12.2 °F 38% 30.30 in 10.0 mi West 3.5 mph - N/A   Clear
3:55 PM 33.8 °F 28.6 °F 10.4 °F 38% 30.30 in 10.0 mi WSW 5.8 mph - N/A   Clear
4:15 PM 33.8 °F 28.6 °F 10.4 °F 38% 30.29 in 10.0 mi SSW 5.8 mph - N/A   Clear
4:35 PM 33.8 °F 27.0 °F 10.4 °F 38% 30.28 in 10.0 mi SSW 8.1 mph - N/A   Clear
4:55 PM 33.8 °F - 10.4 °F 38% 30.28 in 10.0 mi Calm Calm - N/A   Clear
5:15 PM 33.8 °F - 10.4 °F 38% 30.28 in 10.0 mi Calm Calm - N/A   Clear
5:35 PM 32.0 °F - 10.4 °F 41% 30.28 in 10.0 mi Calm Calm - N/A   Clear
5:55 PM 30.2 °F 26.7 °F 10.4 °F 44% 30.28 in 10.0 mi SSE 3.5 mph - N/A   Clear
6:15 PM 28.4 °F 23.3 °F 10.4 °F 47% 30.28 in 10.0 mi SE 4.6 mph - N/A   Clear
6:35 PM 28.4 °F 23.3 °F 10.4 °F 47% 30.28 in 10.0 mi SE 4.6 mph - N/A   Clear
6:55 PM 26.6 °F 21.2 °F 10.4 °F 51% 30.28 in 10.0 mi SE 4.6 mph - N/A   Clear
7:15 PM 26.6 °F 20.0 °F 10.4 °F 51% 30.28 in 10.0 mi SE 5.8 mph - N/A   Clear
7:35 PM 26.6 °F 21.2 °F 10.4 °F 51% 30.28 in 10.0 mi SE 4.6 mph - N/A   Clear
7:55 PM 26.6 °F 20.0 °F 10.4 °F 51% 30.28 in 10.0 mi SE 5.8 mph - N/A   Clear
8:15 PM 24.8 °F 16.9 °F 10.4 °F 54% 30.27 in 10.0 mi SSE 6.9 mph - N/A   Clear
8:35 PM 21.2 °F 10.9 °F 8.6 °F 58% 30.27 in 10.0 mi East 9.2 mph - N/A   Clear
8:55 PM 21.2 °F 9.5 °F 10.4 °F 63% 30.28 in 10.0 mi ESE 11.5 mph - N/A   Clear
9:15 PM 21.2 °F 10.1 °F 10.4 °F 63% 30.28 in 10.0 mi ESE 10.4 mph - N/A   Clear
9:35 PM 21.2 °F 11.7 °F 10.4 °F 63% 30.30 in 10.0 mi East 8.1 mph - N/A   Clear
9:55 PM 19.4 °F 8.6 °F 10.4 °F 68% 30.30 in 10.0 mi East 9.2 mph - N/A   Clear
10:35 PM 19.4 °F 7.9 °F 10.4 °F 68% 30.30 in 10.0 mi ESE 10.4 mph - N/A   Clear
10:55 PM 19.4 °F 8.6 °F 10.4 °F 68% 30.30 in 10.0 mi East 9.2 mph - N/A   Clear
11:15 PM 17.6 °F 6.4 °F 10.4 °F 73% 30.30 in 10.0 mi East 9.2 mph - N/A   Clear
11:35 PM 17.6 °F 6.4 °F 8.6 °F 68% 30.30 in 10.0 mi East 9.2 mph - N/A   Clear
11:55 PM 17.6 °F 5.7 °F 8.6 °F 68% 30.30 in 10.0 mi East 10.4 mph - N/A   Clear